CZ-3B DEB, 40845

Orbit data source: Space-Track

CZ-3B DEB, 40845 is space debris in HEO originally from a launch on Mon, 19 Dec 2011 UTC launched from the Xichang Space Center, China (XSC). Debris objects in space refer to the collection of defunct objects orbiting the Earth. Examples of debris include non-operational satellites, rocket bodies, and fragments generated from explosions, collisions, or faulty payload assembly.

Loading next visibility...
Identifier
40845, 2011-077AA
Orbit
HEO
Country
Flag of CNCN / PRC
Related business
Manufacturer
CALT
Mission
Spacecraft
Bus & Motor
Unknown
Mass
Unknown
Launch date (UTC)
2011-12-19 (14 years ago)
Launch vehicle
Unknown
Launch site
Xichang Space Center, China (XSC)
Object type
Payload
Rocket body
Debris
Shape & HBR
Unknown shape, 0.2 m
Radar Cross Section
Medium (>0.1 m² and <1 m²)

Expand to show TLE details & history
Last TLE update: 2 days ago

TLE from 2 days ago
0 CZ-3B DEB
1 40845U 11077AA  25307.60250287  .00010383  00000-0  10031-1 0  9995
2 40845  21.4873 214.9132 7460939  53.8679 353.9386  2.03207073 87653
Epoch: 2025-11-03T14:27Z
TLE epoch observation values (Epoch: 2025-11-03T14:27:36.247Z)
Latitude
0.00001°
Longitude
-44.95338°
Altitude
1,721.986 km
Speed
9.125 km/s
True Right ascension
14h 20m 11s
True Declination
0° 00' 00"
Sunlit
Object was in daylight at epoch
Visualization orbit readout
Latitude
Unknown
Longitude
Unknown
Altitude
Unknown
Speed
Unknown
Apparent Right ascension
Unknown
Apparent Declination
Unknown
Sunlit
N/A
Visualization observer readout
Local Sidereal Time
14:00:32
Azimuth
Unknown
Elevation
Unknown
Doppler factor
Unknown
Orbital elements
Apogee altitude
39,603.576 km
Perigee altitude
308.237 km
Semi-major axis
26,334.044 km
Eccentricity
0.74609
Inclination
21.4873°
RAAN
214.9132°
Arg. of periapsis
53.8679°
True anomaly
305.45614°
Mean anomaly
353.9386°
Eccentric anomaly
337.75684°
Mean motion
0.50789 °/min
Orbital period
708.82 mins
BSTAR
0.010031
Loading maneuver chart data...
Computing Atmospheric mass density...
Loading historical data...
Loading historical data...
Loading historical data...
Loading historical data...
Loading historical data...
Loading historical data...
Loading historical data...

Documentation

Showing up to 5 results
|